RH
81 83 86 89 92 93 93 91 89 86 81 85 89 92 95 96 97 97 97 96 95 94 93 92 91 90 88 85 83 80 77 75 73 72 71 70 69 68 67 66 65 65 64 64 64 64 65 67 68 70 71 72 73 74 75 75 74 72 70 66 63 58 53 48 43 38 34 30 26 22 19 17 15 13 12 10 10 9 8 8 7 7 7 7 6 6
98 98 97 96 96 96 96 96 96 95 92 86 85 85 87 90 91 92 92 91 90 88 87 85 84 81 79 77 74 72 69 68 67 67 66 65 65 64 64 64 64 65 67 68 70 72 74 75 76 76 76 74 72 69 66 62 58 53 47 42 36 31 25 21 17 14 11 10 8 7 6 5 5 5 4 4 4 4 4 4 4 4 4 4 4 5
97 98 98 97 97 97 97 97 97 97 97 95 93 91 88 87 86 85 83 82 80 78 76 73 71 69 67 66 65 65 65 66 67 67 68 68 68 69 70 72 74 76 78 79 80 81 80 78 75 71 66 61 56 51 45 40 34 29 24 19 15 12 9 7 6 5 4 4 4 3 3 3 3 3 3 3 3 4 4 4 4 5 5 6 6 7
97 97 97 97 97 97 97 97 97 96 96 96 97 96 96 94 92 89 86 82 78 75 73 70 68 66 64 65 66 67 69 71 73 74 75 76 78 79 81 82 83 83 82 80 77 73 68 62 56 51 45 39 33 28 23 18 15 12 9 7 5 4 4 3 3 3 3 3 3 3 3 3 4 4 5 6 6 7 8 9 10 11 12 14 15 16
96 97 97 97 96 96 96 96 96 96 96 97 97 96 97 96 96 96 95 92 89 86 83 80 78 76 75 76 77 78 80 81 82 82 82 82 82 81 80 77 75 71 67 61 56 50 44 38 32 26 21 17 13 10 8 6 5 4 3 3 3 3 3 3 3 4 4 5 6 7 8 9 10 12 13 15 17 18 20 22 24 25 27 28 30 31
97 97 96 96 95 95 96 96 97 97 97 97 97 97 97 97 97 97 97 97 96 95 94 92 89 88 87 86 86 85 84 82 80 78 75 72 69 66 63 58 53 48 43 37 31 25 19 14 11 8 7 5 4 4 3 3 3 3 3 3 4 5 6 7 8 9 11 12 14 16 18 19 21 23 24 26 27 28 29 30 31 32 33 33 34 35
97 96 96 95 95 96 96 97 97 97 97 97 97 97 97 97 97 97 97 97 97 97 97 95 93 90 86 82 79 76 72 68 65 62 59 56 51 46 40 34 28 22 17 12 9 6 5 4 4 3 3 3 3 3 3 4 5 6 7 8 9 11 13 14 16 18 19 20 22 23 23 24 24 25 24 24 23 23 22 22 21 21 20 20 20 19
96 96 96 96 96 96 97 97 96 96 96 96 96 96 96 95 95 95 96 96 96 95 93 90 86 80 74 68 63 58 54 50 47 43 38 32 26 20 15 11 8 5 4 4 4 4 3 3 3 3 4 4 5 6 7 9 10 11 13 14 16 17 18 18 19 19 19 18 18 17 16 15 14 13 12 10 10 9 8 7 6 6 5 5 5 5
94 95 96 96 96 95 95 93 90 88 88 85 84 85 86 85 83 81 80 81 80 77 72 67 63 59 53 47 42 36 30 25 21 17 14 11 8 6 4 4 4 4 3 3 3 4 4 5 6 7 8 9 10 12 13 14 15 15 16 16 15 15 14 13 12 11 9 8 7 6 5 4 3 3 2 2 1 1 1 1 1 1 1 1 1 2
93 90 89 88 84 81 78 73 67 62 59 55 54 55 55 55 52 49 46 45 44 40 35 32 31 28 23 19 15 13 10 9 7 6 5 4 4 4 3 3 3 4 5 6 7 8 9 10 11 12 13 14 14 14 14 13 12 11 10 9 8 7 5 4 4 3 2 2 1 1 1 1 1 1 1 1 1 1 1 2 2 3 3 4 5 6
77 72 64 60 55 52 49 44 38 33 26 25 25 25 23 23 22 21 19 17 16 15 13 11 10 9 8 7 6 6 5 5 4 4 4 4 4 4 5 6 8 9 10 11 13 13 14 14 14 14 13 12 11 10 8 7 6 5 4 3 2 2 1 1 1 1 1 1 1 1 1 1 2 2 2 2 3 3 4 5 6 7 8 10 11 12
53 45 38 33 29 26 26 24 20 15 12 13 14 13 13 13 12 11 10 9 9 9 9 8 7 6 5 5 5 4 4 3 4 4 5 7 8 10 11 13 14 15 15 16 15 15 14 12 11 9 8 6 5 4 3 2 2 1 1 1 1 1 1 2 2 2 2 2 2 2 2 3 3 3 4 5 6 7 8 10 11 12 14 15 16 18
39 31 24 21 19 18 17 16 15 14 14 13 13 12 12 11 11 10 10 9 9 8 7 6 5 4 4 4 4 4 5 7 8 10 12 13 15 16 17 17 17 16 15 13 12 10 8 6 5 4 3 2 2 1 1 1 2 2 2 2 2 2 2 2 2 2 2 2 3 3 3 4 5 6 7 9 10 12 13 15 16 18 19 20 22 24
36 28 23 22 20 19 17 16 15 14 13 13 12 11 10 10 9 8 7 6 6 5 5 5 5 5 6 7 9 10 12 14 16 17 18 19 19 18 17 15 13 11 9 7 5 4 3 2 2 1 1 2 2 2 2 2 3 3 3 3 3 2 2 2 2 3 3 3 4 5 6 7 8 10 12 14 16 18 19 21 22 24 26 28 30 31
45 37 29 24 21 18 17 15 13 12 11 11 10 9 8 7 6 5 5 5 5 5 6 8 9 11 13 15 17 18 19 20 20 20 20 18 16 13 11 8 6 4 3 2 1 1 1 2 2 2 3 3 3 3 3 3 3 3 3 3 2 2 3 3 3 4 4 5 7 8 9 11 13 15 17 19 21 23 25 26 28 30 32 33 34 35
41 37 31 26 22 18 16 14 11 10 9 8 7 6 5 6 6 6 7 8 9 10 12 15 18 20 22 23 23 23 22 20 18 16 14 11 8 6 4 3 2 1 1 1 2 2 3 3 4 4 4 4 4 4 4 3 3 3 3 3 3 3 4 4 5 6 7 9 10 12 14 16 17 19 21 23 24 26 27 29 31 32 33 34 34 35
26 24 21 18 17 15 13 11 9 7 7 6 6 7 8 9 11 12 14 16 17 19 21 23 24 25 25 24 21 19 16 14 11 9 6 4 3 2 2 2 2 2 3 3 4 4 5 5 5 5 5 5 4 4 4 3 3 3 3 3 4 5 6 7 8 9 11 12 14 16 17 19 20 22 23 24 26 27 28 30 31 32 32 32 33 33
16 14 13 13 11 10 8 7 7 7 8 10 11 13 14 17 19 22 24 26 26 27 27 26 25 23 20 17 13 10 8 6 4 3 2 2 2 2 3 3 4 4 5 5 6 6 6 6 6 6 6 5 5 4 4 4 4 4 4 5 6 7 8 10 11 12 14 15 17 18 19 21 22 23 25 26 27 28 30 31 32 33 33 33 34 35
9 8 8 8 7 7 7 10 12 14 16 18 20 22 25 27 29 30 31 31 30 28 26 23 19 15 11 8 6 4 3 2 2 2 3 3 3 4 4 5 6 7 7 8 8 8 8 8 7 7 6 6 5 5 4 4 4 5 5 6 7 9 10 12 13 15 16 18 19 20 21 22 24 25 26 27 29 30 32 34 35 36 37 38 39 39
7 7 7 8 9 11 15 18 21 23 26 27 29 32 34 34 34 33 31 29 26 22 18 13 10 6 4 3 2 2 3 3 4 4 4 4 5 6 6 7 9 9 10 10 10 10 10 9 9 8 7 6 6 5 5 5 5 6 6 7 9 10 11 12 14 15 16 17 18 19 20 22 24 26 27 30 32 34 36 38 41 43 45 45 45 45
13 14 15 16 18 22 25 27 29 30 32 33 35 35 35 34 32 29 25 20 16 11 7 5 4 3 3 3 3 4 4 4 5 5 6 6 7 8 10 11 12 12 12 12 12 12 11 11 10 9 8 7 6 6 5 6 6 6 7 8 8 9 10 11 11 12 13 14 15 17 19 21 25 28 31 34 37 40 42 44 47 49 51 52 51 50
24 25 25 26 29 31 33 34 35 36 37 36 35 33 31 27 24 19 15 11 7 5 3 3 4 4 4 4 5 5 5 6 6 7 8 9 11 12 13 15 15 15 15 15 15 15 14 13 12 10 9 8 8 7 7 7 7 7 7 8 8 9 10 10 10 11 12 13 14 17 19 23 27 31 35 39 42 45 47 49 51 54 56 56 56 54
35 35 36 37 38 38 39 39 39 39 39 35 31 27 23 19 15 11 8 5 4 3 3 4 5 6 6 6 6 6 7 8 9 10 11 13 15 16 17 18 19 19 18 19 19 18 17 16 14 13 12 11 10 10 10 9 10 10 10 11 11 12 12 13 14 14 15 16 17 18 21 24 27 31 35 39 43 46 49 51 54 56 58 59 59 59
43 42 43 43 43 43 42 40 37 35 32 28 23 19 15 10 7 5 3 2 3 4 5 6 7 7 6 7 7 8 9 10 12 14 15 17 19 20 21 22 22 23 23 23 23 23 22 20 18 17 16 15 15 14 14 14 14 15 15 16 16 16 16 16 17 17 18 18 19 21 22 24 27 30 33 37 41 44 48 51 53 56 59 61 62 62
46 45 44 43 40 38 35 31 27 23 19 16 12 8 5 3 2 1 1 3 5 6 7 7 7 6 7 8 10 11 12 14 16 18 19 21 23 25 25 26 26 27 27 27 28 27 26 25 23 21 21 20 20 20 20 20 20 21 21 21 21 20 20 19 19 19 20 21 22 23 24 25 27 29 32 35 39 42 45 49 52 55 59 61 63 65
40 38 36 33 30 26 22 19 15 12 9 7 4 3 1 1 1 2 3 5 7 8 8 7 8 8 9 11 12 14 16 17 19 21 23 25 27 28 28 29 30 30 31 31 32 32 31 29 28 28 27 27 27 26 26 26 26 27 27 26 26 25 24 23 23 22 22 23 24 25 26 27 28 30 32 35 38 41 44 47 51 54 58 61 63 65
30 27 25 21 18 15 12 9 7 5 4 2 2 1 1 2 3 4 5 6 8 8 9 9 9 10 12 14 16 17 19 21 23 25 27 29 30 31 31 32 32 33 33 34 35 35 35 34 34 34 35 34 34 34 33 33 33 32 32 31 30 29 28 27 26 25 24 24 25 26 27 28 29 31 33 35 38 41 44 47 51 54 58 61 63 65
19 17 15 12 10 8 6 4 3 2 1 1 1 1 2 3 4 5 6 7 9 10 10 10 11 13 14 16 18 20 22 24 26 28 31 31 32 33 34 35 35 35 36 37 38 38 38 39 39 40 41 42 42 41 41 40 39 38 38 37 35 34 32 30 28 27 26 26 26 26 27 29 30 32 33 36 38 41 44 47 51 55 59 62 64 65
11 10 8 7 5 4 3 2 2 1 1 1 1 2 3 5 5 6 7 8 10 10 11 12 13 15 17 19 21 23 25 26 29 31 33 34 35 36 37 37 37 38 39 40 41 42 42 43 44 45 47 48 49 49 48 47 46 45 44 43 41 39 36 33 31 29 28 27 27 27 28 29 31 32 34 36 39 42 45 48 52 56 60 63 65 67
5 4 4 3 3 2 2 2 2 2 1 2 2 3 4 6 6 7 8 9 10 11 13 14 15 17 19 21 23 25 27 29 31 34 35 36 37 39 40 40 41 41 43 44 46 46 47 47 48 50 52 53 54 55 55 54 53 52 51 50 47 44 41 38 35 33 31 30 30 30 30 30 31 33 35 37 40 43 46 49 52 56 59 62 66 69
2 1 1 1 1 1 2 3 3 3 3 3 3 4 5 6 7 7 8 9 11 12 14 15 17 18 20 22 24 26 28 31 34 36 38 38 40 41 43 43 44 44 45 47 48 50 52 52 53 54 56 58 59 60 60 60 60 59 59 57 55 52 48 45 42 39 36 35 33 33 32 32 33 34 36 38 41 44 46 49 52 55 57 60 64 68
3 2 2 1 1 2 3 4 5 6 6 6 6 6 6 7 7 8 8 9 11 13 14 16 18 19 22 24 26 28 31 34 36 39 41 41 42 43 45 45 46 46 46 48 50 52 55 56 57 58 60 61 62 64 65 65 66 66 65 65 63 61 58 55 51 48 44 41 38 36 35 34 34 35 36 38 41 43 46 49 51 53 54 56 60 64
9 7 6 4 4 4 4 6 7 9 10 10 9 8 8 8 8 8 9 9 10 12 14 16 18 20 23 25 28 31 34 37 40 42 44 44 45 46 47 48 48 49 49 51 53 56 58 60 61 62 63 64 65 67 68 69 70 70 70 70 69 68 66 63 60 57 53 48 44 41 38 37 36 36 37 38 41 43 45 47 49 51 51 52 56 60
20 17 14 12 10 10 9 10 10 12 14 16 15 12 10 9 9 9 9 10 10 11 13 15 18 21 24 27 31 34 38 41 43 45 47 47 47 48 49 49 50 51 52 54 57 59 61 63 64 66 67 67 68 69 71 72 73 73 72 72 71 71 70 69 68 66 62 57 52 47 43 40 38 38 38 39 40 42 44 46 48 49 50 51 53 57
34 31 27 24 21 19 17 17 17 17 18 20 20 18 13 11 10 10 10 10 10 11 13 15 18 22 26 31 35 40 43 46 48 49 49 49 49 50 50 51 52 53 55 57 60 62 64 65 66 67 68 70 71 72 73 74 74 74 73 72 72 72 72 72 71 71 69 66 61 55 49 45 41 40 39 40 41 43 44 46 47 48 50 52 54 57
47 44 40 37 34 31 29 27 26 25 24 26 25 22 17 13 11 10 10 10 11 12 14 18 22 26 32 37 42 46 50 52 52 52 51 51 51 51 51 52 53 55 57 60 62 64 66 67 67 68 69 71 73 74 75 75 75 75 74 72 72 72 72 72 73 73 73 71 68 63 57 51 46 43 41 41 42 43 45 46 47 48 50 53 56 58
57 54 52 49 46 43 41 38 35 32 30 31 29 25 18 14 12 11 11 11 13 16 19 24 29 35 40 45 50 53 55 55 55 53 52 52 52 52 53 54 55 57 60 62 64 66 66 67 68 69 70 71 72 73 74 75 75 74 73 72 71 72 73 73 73 73 74 73 72 69 65 59 53 48 45 43 43 45 46 47 48 49 51 53 55 57
62 61 60 58 55 53 50 46 42 39 37 35 31 25 18 15 13 12 13 16 20 25 31 36 41 46 50 54 56 58 57 56 55 54 53 53 53 54 54 56 58 60 62 64 65 66 67 67 68 69 71 71 71 72 72 73 73 73 72 71 71 72 73 74 74 74 74 74 74 73 71 66 61 55 50 47 45 45 45 46 48 49 51 52 54 55
65 64 64 62 60 57 54 49 46 43 41 36 30 23 17 15 15 17 21 27 34 40 46 50 53 56 58 59 59 58 57 55 54 53 53 54 54 55 57 58 60 62 64 66 66 67 67 67 68 69 71 71 70 70 69 69 70 70 70 70 70 72 73 74 74 74 74 74 75 74 74 71 67 62 56 51 47 45 44 44 45 46 49 51 53 55
65 65 64 62 60 57 53 50 46 43 38 32 26 22 20 21 25 31 38 45 51 55 58 59 60 60 59 58 57 56 55 54 54 54 54 55 56 57 59 60 62 63 65 67 68 68 68 68 69 70 71 70 69 67 67 66 66 67 67 68 70 71 72 74 75 75 75 75 75 75 75 74 72 69 64 58 53 49 46 44 43 43 45 47 50 53
62 61 60 57 55 52 50 46 42 37 32 29 28 29 33 38 45 51 57 61 62 63 62 60 59 58 57 56 55 54 54 54 55 55 56 57 58 59 61 62 63 65 66 67 68 69 69 69 70 70 70 69 67 65 64 64 65 65 66 67 69 71 72 73 74 74 75 75 75 75 75 75 75 74 71 66 60 55 50 46 43 42 42 44 46 49
56 55 52 50 47 45 42 39 37 36 36 39 43 49 55 60 65 67 68 67 66 63 60 58 56 55 55 54 54 54 55 55 56 57 57 58 60 61 62 64 65 67 68 68 69 69 70 70 70 69 68 66 65 64 64 64 65 65 66 67 68 70 71 72 73 74 74 75 75 76 76 76 76 76 76 72 68 62 57 51 47 44 42 42 44 47
50 49 48 46 45 45 44 45 48 51 56 61 66 70 73 73 73 72 70 68 65 62 59 57 56 56 56 55 55 56 56 57 58 58 59 60 61 62 64 66 67 68 69 69 70 71 71 71 70 68 65 63 62 63 64 65 66 67 67 67 68 68 70 71 72 73 74 75 76 77 78 78 78 78 78 77 74 70 64 58 52 47 43 42 43 45
54 54 55 57 58 60 62 65 69 72 76 78 79 78 77 75 73 71 69 67 65 63 62 61 60 59 58 56 56 56 57 58 59 60 60 61 62 64 65 67 68 70 71 71 72 72 73 72 70 66 62 61 61 62 63 65 66 68 68 68 68 69 70 70 71 72 74 76 77 79 80 80 80 79 79 79 78 76 72 66 59 52 47 43 42 43
70 72 73 76 77 79 81 82 83 83 82 81 80 77 76 74 72 70 69 68 66 65 64 63 62 61 59 58 57 57 58 59 59 60 61 62 63 65 66 68 69 70 72 73 73 73 74 73 69 65 61 60 60 61 63 65 67 68 69 69 69 70 70 71 72 73 75 77 79 81 83 84 84 83 81 80 79 78 77 73 67 60 52 46 42 42
85 86 86 87 87 87 87 86 85 83 82 80 77 76 74 73 71 70 68 67 66 65 64 63 62 61 59 59 59 59 59 59 59 60 60 62 63 65 66 68 69 71 73 74 74 74 72 70 68 64 61 60 60 61 63 65 67 68 69 70 70 71 71 72 73 75 76 78 80 82 84 85 85 84 84 83 82 81 79 78 74 68 60 51 45 42
89 89 89 89 88 87 85 84 82 81 79 78 76 74 73 72 70 69 68 67 66 65 64 63 62 61 60 60 60 60 60 59 60 60 61 62 63 65 66 68 69 71 73 74 74 73 70 67 65 63 61 61 61 62 64 66 67 69 70 70 70 71 72 74 75 76 77 79 81 82 83 83 84 84 85 85 84 83 82 80 78 74 68 58 50 44
90 89 88 87 85 84 82 81 79 78 76 75 74 73 72 70 69 68 67 66 65 64 64 63 62 62 61 61 61 61 60 61 61 62 63 63 64 66 67 69 70 71 72 72 72 70 68 64 62 61 62 63 63 64 65 67 69 70 71 71 71 72 73 75 76 77 79 80 81 81 81 82 83 84 85 85 85 85 84 83 81 78 76 67 56 48
87 86 84 83 81 80 79 77 76 75 74 73 72 71 70 69 68 67 66 66 65 65 64 63 63 63 62 62 62 62 62 63 64 65 66 67 68 69 71 72 73 73 72 71 69 67 65 62 60 61 63 65 67 68 68 70 71 72 73 73 73 74 75 76 77 78 80 81 81 81 81 81 82 83 83 84 85 86 86 85 83 81 80 74 64 54
82 81 80 79 78 77 76 75 74 73 72 71 70 69 68 68 67 67 67 66 66 65 65 65 64 64 64 64 64 65 65 66 67 68 70 71 73 74 76 76 76 75 74 71 68 66 64 62 61 62 64 67 70 71 73 74 75 75 75 75 76 77 77 78 79 80 81 82 81 81 81 81 81 82 82 83 84 85 85 85 85 84 82 79 71 61
80 80 79 78 77 77 76 75 74 73 72 71 70 70 69 69 68 68 68 68 68 68 68 67 67 67 67 68 68 68 69 70 71 73 74 75 77 78 79 79 78 77 75 72 69 67 65 64 64 64 66 69 72 74 76 78 78 79 78 78 79 80 80 81 81 82 82 82 82 81 81 81 81 82 82 83 83 84 85 85 85 85 84 82 77 69
Wind_Speed
2 2 3 4 4 4 4 4 3 3 2 3 5 7 8 9 10 10 10 11 11 11 11 11 11 11 12 12 13 14 15 15 16 16 17 17 18 18 19 19 20 20 21 22 22 23 23 24 24 24 24 24 24 24 24 24 24 24 24 24 25 25 25 26 27 27 28 29 30 31 32 33 34 35 36 37 38 39 40 41 42 43 44 45 45 46
2 1 2 3 4 4 4 4 3 2 0 2 4 6 8 9 10 11 11 12 12 12 12 12 12 13 13 14 15 16 16 17 17 18 18 18 19 19 19 20 20 21 21 21 22 22 22 22 23 22 22 22 22 22 22 23 23 23 24 24 25 26 26 27 28 29 30 31 32 33 34 35 36 36 37 38 39 40 40 41 42 43 43 44 45 45
3 2 2 2 3 4 4 5 5 5 4 2 1 3 5 6 8 9 11 12 12 13 13 13 13 14 15 15 16 16 17 17 17 18 18 18 18 18 19 19 19 19 19 19 20 20 20 20 20 20 20 20 21 21 22 22 23 24 24 25 26 27 28 28 29 30 31 32 33 34 34 35 36 36 37 38 38 39 39 40 40 41 41 42 42 43
4 3 3 2 2 3 3 5 5 6 6 5 4 3 1 1 3 5 7 9 10 12 12 13 13 14 14 15 15 15 15 15 15 16 16 16 16 16 16 16 16 16 17 17 17 17 18 18 18 19 19 20 21 21 22 23 24 24 25 26 27 28 29 29 30 31 31 32 33 33 34 35 35 36 36 37 37 38 38 39 39 39 40 40 41 41
4 3 2 2 2 2 3 4 5 5 5 5 5 4 3 2 1 2 4 5 7 8 9 10 11 11 12 12 12 12 12 12 12 12 13 13 13 13 13 13 14 14 15 15 16 17 17 18 18 19 20 20 21 22 23 24 24 25 26 27 27 28 29 29 30 30 31 32 32 33 34 34 35 36 36 37 37 38 38 39 39 40 40 41 41 42
5 3 2 2 2 3 4 4 4 3 3 3 3 3 4 3 3 3 4 4 5 5 6 7 8 8 8 8 8 8 9 9 9 10 10 10 11 11 12 13 13 14 15 15 16 17 17 18 19 20 20 21 22 22 23 24 25 25 26 27 27 28 28 29 30 31 31 32 33 34 34 35 36 37 37 38 39 39 40 41 41 42 42 43 43 44
5 4 4 3 3 3 3 3 2 2 2 2 3 3 4 4 4 5 5 5 5 5 5 6 6 6 6 6 6 7 7 8 9 9 10 10 11 11 12 13 14 14 15 16 16 17 18 19 19 20 21 21 22 23 23 24 25 25 26 27 27 28 29 30 31 32 33 33 34 35 36 37 38 38 39 40 41 41 42 42 43 43 44 44 45 45
5 5 5 4 3 3 2 2 2 2 2 3 3 3 4 5 5 6 6 6 6 5 5 5 6 6 6 6 7 7 8 9 9 10 11 11 12 12 13 13 14 15 15 16 17 17 18 19 19 20 21 21 22 23 23 24 25 26 27 27 28 29 30 31 32 33 34 35 36 37 38 38 39 40 41 41 42 42 43 43 43 44 44 44 44 45
5 5 5 4 4 3 3 3 3 3 3 3 3 4 4 4 5 5 5 5 5 5 5 6 6 7 7 7 8 8 9 10 10 11 11 12 12 13 13 14 14 15 15 16 16 17 18 18 19 20 20 21 22 23 24 25 26 27 28 29 30 31 32 33 34 35 36 36 37 38 38 39 40 40 41 41 42 42 42 42 42 42 42 42 42 42
4 5 5 4 4 4 5 5 5 4 4 4 4 4 4 4 5 5 5 5 5 5 6 6 7 7 8 8 8 9 9 10 11 11 11 12 12 13 13 13 14 14 15 15 16 17 17 18 19 20 21 22 23 24 25 26 27 28 29 30 31 32 33 34 35 35 36 37 37 38 38 39 39 39 39 40 40 40 40 40 40 40 39 39 38 38
5 5 5 5 5 5 5 5 5 5 5 4 4 4 4 5 5 5 5 5 5 6 7 7 7 8 8 8 9 9 9 10 10 10 11 11 12 12 12 13 13 14 15 15 16 17 18 19 20 21 22 23 24 25 26 27 28 29 30 31 32 33 33 34 35 35 36 36 36 37 37 37 37 37 37 37 37 37 37 37 37 37 36 36 35 34
6 6 6 6 6 6 6 5 5 5 5 5 5 5 5 5 5 6 6 6 7 7 8 8 8 8 8 8 8 9 9 9 9 9 10 11 11 12 12 13 14 15 16 17 17 18 19 21 22 23 24 25 26 27 27 28 29 30 31 31 32 33 33 34 34 34 35 35 35 35 35 35 35 35 35 35 35 35 35 35 35 34 34 33 32 32
6 6 6 6 6 6 6 6 6 6 6 6 7 7 7 7 7 7 7 7 7 8 8 9 9 9 8 8 8 9 9 9 9 10 10 11 12 13 13 14 15 16 17 18 19 20 21 22 23 24 25 26 26 27 28 29 29 30 30 31 31 32 32 33 33 33 33 33 33 33 33 33 33 33 33 33 33 33 33 33 32 32 31 30 29 28
6 6 6 6 6 6 6 6 7 8 8 8 8 8 8 8 8 8 8 8 8 8 8 8 9 9 9 9 9 9 10 10 11 11 12 13 13 14 15 16 17 18 18 19 20 21 22 23 23 24 25 25 26 27 27 28 28 29 29 30 30 30 31 31 31 31 32 32 32 32 32 31 31 31 31 31 31 30 30 30 29 29 28 27 26 25
6 6 7 7 7 7 7 7 8 8 8 8 8 8 8 9 9 9 9 8 8 7 7 7 8 8 9 9 10 10 11 12 12 13 14 14 15 16 16 17 18 19 19 20 20 21 22 22 23 23 24 24 25 26 26 27 27 28 28 28 28 29 29 29 29 29 29 29 29 29 29 29 29 29 28 28 28 27 27 27 27 26 25 25 24 23
5 6 6 7 7 7 7 7 7 7 7 7 7 8 8 8 8 8 8 8 8 8 7 7 8 8 9 10 10 11 12 12 13 14 14 15 16 16 17 17 18 19 19 19 20 20 21 21 22 22 23 23 24 25 25 25 26 26 26 26 26 27 27 27 27 27 27 27 27 27 27 27 27 27 27 27 27 26 26 26 26 26 26 26 25 25
6 6 6 7 7 7 6 7 7 7 7 7 7 7 7 7 7 7 7 8 8 9 9 9 9 9 10 10 10 11 12 12 13 14 14 15 16 16 17 17 17 18 18 18 19 19 20 20 21 21 22 22 23 23 24 24 24 24 24 24 25 25 25 25 25 25 26 26 26 26 26 26 26 26 27 27 27 27 27 27 27 27 27 27 26 25
8 8 8 8 7 7 7 7 7 7 7 7 7 7 6 7 7 7 7 8 8 9 9 10 10 10 10 11 11 11 11 12 13 14 14 15 15 16 16 16 17 17 17 18 18 18 19 19 20 20 21 22 22 22 22 22 22 22 23 23 23 23 23 24 24 24 24 25 25 25 25 25 26 26 26 26 26 26 26 26 27 27 27 27 26 25
9 9 8 8 8 8 8 8 8 8 8 8 8 8 8 8 8 8 8 9 9 10 10 10 10 10 10 11 11 11 12 12 13 14 14 15 15 15 16 16 16 16 17 17 17 18 18 19 20 20 20 21 21 21 21 21 21 21 21 21 21 22 22 22 22 23 23 23 23 24 24 24 24 24 24 25 25 25 25 25 26 26 26 25 25 24
10 9 9 9 9 9 9 9 9 9 9 9 9 9 9 9 9 9 10 10 10 10 10 10 10 10 11 11 12 12 13 13 14 14 14 15 15 15 15 15 16 16 17 17 17 18 18 19 19 19 19 20 19 19 19 19 19 19 20 20 20 20 20 20 20 21 21 21 22 22 22 23 23 23 23 23 23 23 23 23 24 24 24 24 23 23
11 10 10 10 9 9 9 9 9 10 9 10 10 10 10 10 10 10 10 10 10 10 10 10 10 11 11 12 13 13 14 14 14 14 14 14 15 15 15 15 16 16 17 17 17 18 18 18 18 18 18 18 18 18 18 18 18 18 18 18 19 19 19 19 19 20 20 20 21 21 21 21 21 21 21 21 21 21 21 21 22 22 22 22 22 22
11 11 11 10 10 10 10 10 10 10 10 10 10 10 10 10 10 10 10 10 10 10 10 11 11 12 12 13 14 14 14 14 14 14 14 14 14 15 15 16 16 16 16 17 17 18 18 18 18 18 17 17 17 17 17 17 18 18 18 18 18 18 18 19 19 19 19 19 19 19 19 19 19 19 19 19 19 19 19 19 20 20 20 21 21 21
11 11 11 11 10 10 10 10 10 10 10 10 10 10 10 10 10 10 10 10 10 10 11 11 12 13 13 14 14 14 14 14 14 14 14 14 14 15 16 16 16 16 16 16 17 17 17 17 17 17 17 17 17 17 17 17 18 18 18 18 18 18 18 18 18 18 18 18 18 18 18 18 18 18 18 18 18 18 18 18 18 18 19 19 19 20
11 10 10 10 10 10 10 10 10 10 10 10 10 10 10 10 10 10 10 10 10 11 11 12 13 14 14 14 14 14 14 14 15 15 14 14 15 15 16 16 16 16 16 16 16 16 16 16 17 17 17 17 17 17 18 18 18 18 18 17 17 17 17 17 17 17 17 17 17 17 17 18 18 18 18 18 18 18 18 18 18 18 18 18 18 18
10 10 10 10 10 10 10 10 10 10 10 9 9 9 9 9 9 9 9 10 10 11 12 13 14 14 14 14 14 15 15 15 15 15 15 15 16 16 17 17 17 16 16 16 16 16 16 17 17 17 18 18 18 18 18 18 18 18 18 18 18 18 18 18 18 18 18 18 18 17 17 17 17 17 17 18 18 18 18 17 17 17 17 17 17 17
10 10 10 9 9 9 9 9 9 9 9 9 9 9 8 8 8 9 9 10 11 12 13 13 13 14 14 14 14 15 15 15 16 16 17 17 17 17 18 18 17 17 17 17 17 17 17 17 17 18 18 18 18 18 18 18 18 18 18 18 19 19 19 19 19 19 19 19 18 18 18 18 17 17 17 17 17 17 17 17 17 17 16 16 16 16
10 10 10 10 10 10 9 9 9 9 9 9 9 9 8 9 9 10 11 12 12 13 13 13 13 14 14 14 15 15 16 16 16 17 18 18 18 18 19 19 19 19 19 19 19 19 18 18 18 18 18 18 19 19 19 19 19 19 20 20 20 20 21 21 21 21 20 20 19 19 18 18 17 17 17 17 17 17 16 16 16 16 16 16 15 15
11 11 10 10 10 10 10 10 10 9 9 9 9 9 9 10 10 11 12 12 13 13 13 13 13 14 14 15 15 16 16 17 17 18 18 18 18 18 19 19 20 20 20 20 20 20 19 19 19 19 19 19 19 19 20 20 20 21 21 21 22 22 22 22 22 21 21 20 19 19 18 18 17 17 17 17 16 16 16 16 16 16 15 15 14 14
12 11 11 11 11 11 10 10 10 10 10 10 10 10 10 11 11 12 12 12 13 13 13 13 14 14 15 15 16 16 17 17 17 18 18 17 17 17 18 18 18 18 18 19 20 20 20 19 19 19 19 20 20 20 21 21 22 22 22 22 22 22 22 22 22 21 21 20 19 19 18 18 17 17 17 16 16 16 16 16 16 15 15 14 13 13
12 12 12 12 11 11 11 11 11 11 10 10 10 11 11 11 11 12 12 12 13 13 13 14 14 15 16 16 17 17 17 17 17 18 17 16 16 16 16 15 15 15 16 16 17 19 20 20 20 20 20 21 21 22 22 22 22 22 22 22 22 21 21 21 21 20 20 19 19 18 18 17 17 17 16 16 16 15 15 15 15 15 15 14 13 12
13 12 12 12 12 11 11 11 11 11 11 11 11 11 11 11 11 11 12 12 13 13 13 14 15 15 16 17 17 17 17 17 17 17 17 16 15 15 15 15 15 15 15 15 16 17 18 19 20 21 21 22 22 23 23 22 22 22 21 21 20 20 19 19 19 19 19 18 18 18 17 17 17 16 16 16 15 15 15 15 15 15 15 14 13 11
13 12 12 12 12 12 12 11 11 11 11 11 11 11 11 11 11 11 12 12 13 13 14 14 15 16 17 17 17 17 17 17 17 17 17 16 16 16 16 15 15 16 16 16 16 16 17 18 19 20 21 21 22 22 22 22 21 21 20 19 19 18 18 18 18 18 17 17 17 17 17 17 17 16 16 16 15 15 15 14 15 15 15 14 13 12
12 12 12 12 12 12 12 11 11 11 11 11 11 11 11 11 11 11 12 12 13 13 14 15 15 16 17 17 18 18 18 18 18 17 17 16 16 16 16 16 16 16 16 16 17 17 18 18 19 19 20 20 21 21 21 21 21 20 19 19 18 18 17 17 17 17 17 16 16 16 16 16 16 16 16 16 15 15 15 14 14 14 14 14 14 13
12 12 12 12 11 11 11 11 11 10 10 10 10 10 10 11 11 11 11 12 13 13 14 15 15 16 17 17 18 18 18 18 18 18 17 17 16 16 15 15 15 15 16 16 17 17 18 18 19 19 19 19 20 20 20 20 20 20 19 19 18 18 18 17 17 17 16 16 16 16 16 16 16 16 16 16 16 15 15 15 15 15 15 14 14 14
12 12 11 11 11 11 11 10 10 10 10 10 10 10 10 10 11 11 11 12 13 13 14 15 16 16 16 17 17 17 18 18 18 18 18 17 16 16 15 15 14 15 15 16 16 17 18 18 18 18 18 18 19 19 20 20 20 20 20 19 19 19 18 18 18 17 17 16 16 15 15 15 15 16 16 16 16 16 15 15 15 15 15 15 14 14
12 12 11 11 11 10 10 10 10 10 10 10 10 10 10 10 11 11 11 12 13 14 14 15 15 16 16 16 17 17 17 18 18 18 18 17 16 15 15 14 14 14 15 16 16 17 17 18 18 18 18 18 18 18 19 20 20 20 20 20 20 20 20 19 19 19 18 17 16 16 15 15 15 15 16 16 16 16 16 15 15 15 14 14 14 14
12 12 11 11 10 10 10 10 10 9 10 10 10 10 10 11 11 11 12 13 13 14 15 15 15 15 15 15 16 16 17 17 17 17 17 15 15 14 14 14 14 14 16 16 17 17 17 17 18 18 18 18 18 18 18 19 19 19 20 20 20 21 21 20 20 20 19 18 18 17 16 16 15 15 16 16 16 16 16 16 15 15 14 14 14 13
12 12 11 11 10 10 10 9 9 9 9 10 10 10 11 11 12 12 13 13 14 14 15 15 14 14 14 14 14 15 15 15 16 15 15 14 14 14 14 14 15 15 16 17 17 18 18 18 18 18 19 19 19 19 19 19 19 19 20 21 22 22 22 22 21 21 20 19 19 18 17 16 16 15 15 15 15 15 15 15 15 15 15 14 14 13
12 11 11 11 10 10 10 9 9 9 10 10 10 11 11 12 12 13 13 14 14 14 14 14 14 14 14 14 14 14 14 14 14 14 14 13 13 13 14 15 15 16 17 18 18 19 19 19 19 19 20 20 21 21 21 21 20 20 21 22 22 23 23 23 23 22 21 20 20 19 18 17 16 15 15 15 15 14 14 14 14 14 14 14 14 14
12 12 12 11 11 11 11 10 11 11 11 11 11 12 12 12 13 13 14 14 15 15 15 15 14 14 14 14 13 13 13 13 13 13 13 13 13 14 14 15 16 17 17 18 19 20 20 21 21 21 21 22 22 22 22 22 22 22 23 23 23 24 24 25 24 24 23 22 21 19 18 17 16 16 15 15 14 14 14 14 14 14 13 13 13 13
13 13 13 13 12 12 12 12 12 12 13 13 13 13 13 13 14 15 15 16 16 17 16 16 16 15 15 14 13 13 13 13 13 13 13 13 14 14 15 16 17 17 18 19 20 21 22 22 22 22 22 23 23 24 24 24 24 25 25 25 25 26 26 26 26 25 24 23 22 20 19 18 17 16 15 15 14 14 14 14 14 14 14 14 14 13
15 15 14 14 14 14 14 14 14 14 14 14 14 14 15 16 17 18 19 20 20 20 19 18 18 18 17 16 14 13 13 12 13 13 13 14 15 15 16 17 17 18 19 20 21 22 23 23 23 23 23 23 24 24 25 25 26 27 27 27 27 27 27 26 26 26 25 24 23 22 21 19 18 17 16 15 15 15 14 14 14 15 15 15 15 14
17 17 16 16 16 16 16 16 16 16 16 16 16 17 18 19 20 21 22 23 23 22 21 20 19 19 18 16 15 14 13 13 13 14 14 15 16 17 17 18 18 19 20 21 22 23 24 24 24 24 24 24 25 25 26 26 27 28 29 29 29 28 27 26 26 26 25 25 24 23 22 21 19 18 17 16 16 15 15 15 15 15 15 15 16 15
19 19 19 18 18 18 18 18 18 18 18 19 20 21 21 22 22 22 22 22 22 21 20 19 18 18 16 15 15 14 14 14 14 15 16 16 17 18 18 19 20 20 21 22 23 23 24 24 24 24 25 25 26 26 27 27 28 29 30 30 30 29 28 28 27 27 26 25 25 24 23 22 21 20 19 18 17 16 15 15 15 15 16 16 16 16
22 22 21 21 21 21 21 21 21 22 23 23 24 24 24 23 22 22 21 21 20 19 18 18 17 16 16 15 15 15 16 16 16 17 17 18 18 19 20 20 21 22 22 23 23 23 23 23 24 25 26 26 26 27 27 28 29 29 30 30 30 30 30 29 29 28 27 26 25 25 24 23 22 21 20 19 18 17 16 15 15 15 16 16 17 17
25 25 25 25 25 25 25 25 25 25 26 25 25 24 23 22 21 21 20 19 19 18 18 17 16 16 16 16 16 17 17 18 18 19 19 19 20 21 21 22 23 23 23 23 23 24 24 24 24 25 26 27 27 28 28 29 29 30 30 30 30 30 30 30 29 29 28 27 26 25 24 24 23 22 21 20 19 18 17 16 16 16 16 17 17 18
29 28 28 28 28 28 28 28 27 27 26 25 24 23 22 21 21 20 20 19 19 18 18 18 17 17 17 17 18 19 19 20 20 21 21 22 22 22 23 23 24 24 24 24 24 24 24 24 25 25 26 26 27 28 29 30 30 30 30 30 30 30 30 30 30 30 29 28 27 26 25 24 23 23 22 21 20 19 18 17 17 16 16 17 17 18
31 31 31 31 31 30 29 28 27 27 26 24 23 23 22 21 21 21 21 21 20 20 19 19 19 19 19 20 20 21 21 21 22 22 23 24 24 24 25 25 25 25 25 25 25 25 25 25 25 26 26 27 27 28 29 29 30 30 30 30 30 29 29 30 30 30 29 29 28 27 26 25 25 24 24 23 22 21 19 19 18 18 17 17 17 17
34 34 33 32 31 30 29 29 28 27 26 25 25 24 24 24 23 23 23 23 23 22 22 22 21 22 22 22 22 22 22 22 23 23 24 24 25 25 25 25 25 25 26 26 26 26 26 26 26 26 27 27 28 28 29 29 29 30 30 30 30 29 29 30 30 30 29 29 28 27 27 27 27 26 25 25 24 22 21 20 19 19 18 17 17 17
36 35 35 34 33 32 31 30 30 29 29 28 28 28 27 27 27 27 26 26 25 25 24 24 24 24 23 23 23 23 23 23 23 23 23 24 25 25 25 25 26 26 26 26 27 27 27 27 27 27 28 28 28 28 28 28 29 29 29 29 30 29 29 29 29 29 29 28 28 28 28 28 28 28 27 26 25 24 23 22 21 20 19 18 18 17
38 38 37 37 36 35 35 34 34 34 33 33 33 32 32 31 31 30 30 29 28 27 27 26 26 25 25 24 24 23 23 23 23 23 23 24 24 24 24 24 24 25 25 26 27 27 28 28 28 28 28 28 28 28 28 28 28 28 28 29 29 29 29 29 29 29 28 28 28 28 28 28 28 28 28 27 27 26 25 24 22 21 20 19 18 17
Wind_Direction
43 5 343 342 344 342 336 331 331 321 285 241 221 212 212 214 216 218 221 224 227 230 233 235 239 243 247 252 256 259 261 263 264 265 266 266 266 266 266 266 266 267 267 268 268 269 270 271 272 273 274 275 276 277 277 278 278 279 279 279 279 278 278 277 277 276 275 274 273 273 272 271 270 269 269 268 268 267 267 266 266 265 265 264 264 264
70 35 8 360 357 354 354 356 5 17 66 216 224 230 232 232 231 231 233 234 237 238 239 240 243 245 249 251 254 257 259 262 264 265 267 268 268 269 269 270 270 270 270 271 271 272 273 274 275 277 278 279 280 281 282 283 283 283 283 282 282 281 281 279 279 278 277 276 275 274 273 272 272 271 271 270 270 269 268 268 267 267 267 266 266 265
59 52 43 29 21 19 20 24 30 39 51 73 145 204 223 231 235 238 240 242 244 245 245 245 245 247 249 251 253 256 259 261 264 265 267 268 269 270 270 271 272 272 273 274 275 277 278 279 281 282 283 284 285 285 285 285 285 284 283 283 282 281 280 279 279 278 277 277 276 275 275 274 274 273 273 272 272 271 271 270 270 269 269 269 268 268
41 49 46 32 30 39 44 41 36 35 38 41 49 63 108 202 229 236 240 242 244 245 246 245 245 247 249 251 253 256 259 262 264 266 268 269 270 272 273 274 276 277 279 280 282 283 284 285 286 286 287 287 286 286 285 284 284 283 282 282 281 280 280 279 279 279 278 278 278 277 277 277 276 276 275 275 274 274 273 273 273 272 272 271 271 270
38 44 36 25 38 56 56 46 38 31 27 23 20 18 15 5 324 268 254 250 248 247 247 246 246 248 249 252 255 258 261 264 267 269 271 273 276 278 280 282 283 285 286 287 288 288 288 288 288 287 286 286 285 285 284 284 283 283 282 282 282 282 281 281 281 281 281 280 280 279 279 278 278 277 277 276 276 276 275 275 275 274 274 274 273 273
48 51 50 59 67 66 58 47 38 27 15 3 353 345 335 327 316 304 294 283 272 263 258 254 252 252 254 258 262 267 271 275 277 279 281 283 286 287 288 289 290 290 290 290 290 289 289 288 288 287 287 286 286 286 285 285 285 284 284 284 284 283 283 283 282 282 281 280 280 279 279 278 278 277 277 277 277 277 276 276 276 276 275 275 275 274
49 56 66 71 73 69 58 45 31 12 356 345 334 324 316 311 305 299 294 287 282 277 273 269 268 269 273 277 284 288 291 292 292 292 293 294 294 294 294 293 293 293 292 292 291 291 290 290 289 289 288 288 288 287 287 286 286 285 285 284 284 283 283 282 281 280 280 279 279 278 278 278 278 278 278 278 277 277 277 277 277 277 277 277 276 276
48 52 58 61 61 59 54 36 18 5 356 351 342 329 321 313 308 302 295 290 286 286 287 288 290 293 297 302 305 307 306 304 302 301 301 300 299 298 297 297 296 296 295 294 293 293 292 291 290 289 288 288 287 287 286 286 285 284 284 283 282 282 281 281 280 280 280 280 280 280 280 280 280 280 280 280 280 280 280 280 280 280 280 279 279 279
45 44 45 46 45 44 39 31 19 8 357 351 344 336 328 321 314 311 309 307 306 306 307 306 306 307 310 313 314 313 311 308 306 305 304 303 302 301 300 299 298 297 295 294 292 291 290 289 288 288 287 287 286 286 285 285 284 284 283 283 283 283 283 283 283 283 283 283 284 284 284 284 284 284 284 284 284 284 284 284 283 283 283 283 282 282
43 40 38 36 32 29 27 23 17 6 357 352 347 339 332 328 323 321 322 324 325 323 320 316 314 313 314 315 315 312 310 308 306 305 304 304 303 302 300 299 297 295 294 292 290 290 289 289 289 288 288 288 288 287 287 287 286 287 287 287 287 287 288 288 288 288 289 289 289 289 289 289 289 289 289 289 288 288 288 287 287 286 286 286 286 285
55 44 38 32 26 21 17 13 6 360 356 352 347 340 336 331 329 327 327 330 330 327 322 317 316 316 315 314 313 311 309 307 307 306 305 304 303 302 300 299 298 296 295 294 294 294 294 294 294 293 293 293 293 293 293 293 293 293 293 293 293 293 294 294 294 294 294 294 294 294 294 294 294 293 293 292 292 292 291 291 290 290 290 290 290 290
59 46 37 30 24 18 11 3 357 352 350 348 343 339 336 332 331 331 332 333 334 331 327 322 321 321 320 320 317 316 314 314 313 311 310 308 306 305 304 303 302 301 301 301 300 300 301 301 300 300 300 299 299 299 299 299 299 299 299 299 299 299 299 299 299 299 299 299 298 298 298 297 297 296 296 296 295 295 295 294 294 294 294 294 294 294
62 48 37 27 18 9 1 355 350 349 348 345 342 340 338 337 335 335 336 337 338 337 334 330 329 329 329 328 326 325 323 321 320 318 315 313 311 310 309 308 307 307 307 306 306 306 306 306 305 305 304 304 303 303 303 303 303 303 303 303 303 303 303 303 303 302 302 301 301 301 300 300 299 299 298 298 298 297 297 296 296 296 295 295 295 295
62 48 34 22 13 3 356 351 349 347 346 344 342 340 339 339 340 340 341 342 344 344 342 338 336 334 334 333 331 330 328 325 323 321 319 317 315 314 313 312 312 311 311 311 310 310 309 308 308 307 307 306 306 306 306 306 306 306 306 306 307 306 306 306 305 304 304 303 302 302 301 301 300 300 300 299 299 299 298 297 297 296 296 296 297 298
48 37 23 13 6 0 356 353 349 347 345 343 343 342 343 345 346 347 346 346 347 349 348 344 340 336 335 333 332 330 328 326 324 322 321 319 318 317 316 315 314 314 314 313 313 312 311 310 310 309 309 309 309 309 310 310 310 310 310 310 309 309 308 307 306 306 305 304 303 303 302 302 302 302 302 302 302 301 301 300 300 299 299 300 300 302
28 19 8 3 360 358 357 352 349 347 347 347 349 350 353 354 353 351 349 347 347 348 348 345 341 337 334 332 330 328 326 324 323 322 320 319 319 318 318 317 316 316 316 316 315 314 314 313 313 313 313 313 314 314 314 314 313 313 313 312 311 310 309 308 307 307 306 306 306 306 306 307 307 308 308 308 307 307 306 305 304 303 303 303 304 305
7 2 359 358 359 359 356 351 351 353 357 360 2 2 2 0 358 355 351 348 347 345 345 343 341 337 334 331 328 326 324 322 321 320 320 320 320 320 320 320 320 320 320 319 319 318 318 318 318 318 318 318 318 318 317 317 316 315 315 314 313 312 311 310 310 310 310 310 310 311 312 312 313 313 313 312 311 310 308 307 305 305 304 304 305 306
6 5 5 6 6 5 3 3 4 7 10 11 12 10 7 4 360 356 353 349 346 344 343 342 340 337 334 330 328 327 325 323 323 323 323 324 324 325 325 325 325 325 324 324 323 323 323 322 322 322 322 321 321 320 320 319 318 317 316 316 315 315 314 314 314 314 314 315 315 316 316 316 315 315 313 312 311 309 307 306 305 304 304 304 305 306
14 13 13 13 14 13 13 14 15 15 15 13 12 9 6 2 358 354 351 348 346 344 343 342 340 338 335 332 330 330 330 330 330 330 331 332 332 331 331 332 331 330 329 328 327 327 327 326 326 326 325 324 324 323 322 321 320 319 319 318 318 318 317 317 317 317 317 317 317 316 316 315 314 312 311 310 308 307 306 304 303 303 303 303 304 306
20 19 18 18 18 18 18 18 16 14 12 9 6 3 360 357 354 352 349 348 346 345 345 343 342 340 339 337 337 336 337 337 338 339 339 339 338 337 337 336 335 334 332 331 331 331 331 330 329 328 327 326 325 324 323 323 322 322 322 321 321 320 319 318 318 317 317 315 314 313 312 311 310 309 308 308 307 306 305 304 303 302 302 303 304 306
24 23 22 21 20 19 18 16 14 11 8 4 1 358 356 354 352 351 349 349 348 348 347 347 346 345 345 344 343 343 344 345 346 346 345 344 342 341 340 339 338 337 335 334 333 333 333 332 331 330 329 327 327 326 325 325 325 324 324 323 322 321 319 318 317 316 314 313 312 311 309 309 308 308 308 307 307 306 305 304 303 302 302 303 304 306
24 22 21 20 18 16 14 12 9 7 4 0 358 355 354 352 351 351 351 351 352 351 351 351 351 351 351 350 350 349 349 350 350 350 348 346 344 343 341 341 340 339 337 336 336 335 335 334 332 331 330 329 329 328 328 328 328 327 326 325 324 323 321 320 319 317 316 315 313 312 311 310 309 309 309 308 307 306 305 304 304 303 303 303 304 305
21 19 17 16 14 12 10 8 6 4 0 359 356 355 354 353 354 354 355 355 356 355 355 356 356 356 356 355 354 353 353 353 353 352 351 348 346 344 342 342 342 340 338 338 338 337 336 335 335 334 333 332 332 331 331 331 331 330 330 329 328 327 326 325 325 324 323 321 319 318 316 314 313 311 310 309 307 306 305 305 305 305 306 306 305 305
18 17 15 13 12 10 8 6 4 1 359 358 356 356 355 355 356 358 359 360 360 360 360 360 1 1 0 359 357 356 355 355 354 353 351 348 346 344 343 343 342 341 339 339 339 340 340 339 338 337 336 335 335 335 335 334 334 334 334 334 333 333 333 332 332 331 330 329 327 325 322 320 318 315 313 310 308 307 306 305 306 307 308 308 307 305
17 16 15 13 11 9 8 6 4 2 0 360 359 358 359 360 1 2 3 4 5 5 5 6 6 4 2 0 359 357 355 354 353 353 351 349 346 345 343 343 343 343 341 341 342 343 344 344 342 340 338 338 337 337 337 337 337 338 338 339 339 339 339 338 338 337 336 334 333 330 328 325 323 320 317 314 311 309 307 306 307 308 310 310 309 306
17 16 15 14 13 12 11 10 8 6 5 3 3 4 5 6 7 9 10 11 11 10 10 9 8 5 2 1 359 357 356 354 353 353 351 350 348 346 344 344 344 345 345 345 346 347 347 346 344 342 340 340 339 339 340 340 341 342 343 344 344 344 343 342 341 340 338 337 335 333 331 329 327 325 322 319 316 314 311 310 309 310 311 312 311 308
19 18 18 18 18 17 17 16 14 13 11 9 9 9 10 12 13 14 15 14 13 12 11 10 7 4 2 0 359 357 356 355 354 353 352 351 350 348 347 346 347 347 347 347 347 347 347 346 344 343 342 342 341 341 342 343 344 345 346 347 347 346 345 344 342 340 339 337 336 335 334 332 331 329 327 325 323 320 318 316 315 315 315 314 313 311
21 20 20 20 21 21 21 20 19 18 17 16 16 16 15 16 17 17 15 13 12 11 10 8 6 3 1 359 358 357 356 356 355 354 353 352 352 350 349 349 348 349 348 346 345 345 345 344 344 343 343 343 344 344 345 346 347 348 348 348 348 347 345 343 341 339 338 336 336 335 335 334 334 333 332 330 329 327 326 324 323 322 321 319 316 313
20 20 20 21 22 22 23 22 22 21 20 20 20 20 19 18 18 17 14 12 10 10 8 5 3 1 359 358 358 358 357 356 355 354 353 353 352 350 350 350 348 347 346 344 343 341 342 343 344 344 345 346 347 348 349 349 349 349 349 348 347 345 344 341 339 337 335 335 335 336 336 337 337 337 336 335 334 332 332 331 330 329 327 324 321 317
18 18 18 19 21 21 23 23 23 22 22 22 21 21 20 19 17 15 13 10 9 8 6 3 1 359 358 358 357 357 356 355 354 354 353 352 349 348 348 347 345 343 343 342 342 341 341 342 344 346 347 348 349 350 350 350 350 349 347 346 344 342 340 337 335 334 333 334 335 337 339 340 340 340 340 339 338 337 336 335 334 334 332 330 327 323
16 15 15 16 18 19 21 21 22 22 22 22 21 20 19 17 15 13 11 9 8 6 4 2 0 359 358 357 356 355 353 353 353 353 352 349 347 346 346 344 342 340 340 341 342 342 343 343 345 347 349 350 350 350 350 349 348 347 345 343 341 339 336 334 332 332 332 334 337 339 341 343 344 344 343 342 341 340 339 338 337 336 336 335 334 330
15 14 13 13 14 16 18 18 19 20 20 19 18 18 16 14 12 10 9 8 7 6 4 2 0 358 357 355 354 353 351 352 352 352 351 349 347 346 345 344 343 342 341 342 343 345 346 346 348 349 350 350 349 348 348 347 346 344 342 340 338 336 335 333 332 333 334 336 339 342 344 345 346 346 345 344 344 342 341 340 339 339 339 339 339 338
15 13 12 11 11 12 14 15 15 16 17 17 16 15 13 11 9 8 7 6 5 5 4 2 0 358 356 354 352 351 350 350 351 352 351 350 349 348 347 346 345 345 345 345 347 349 350 351 352 352 351 350 348 347 346 345 344 343 341 340 339 338 337 336 336 336 338 340 342 344 346 347 348 348 347 347 346 345 343 342 342 342 342 343 344 343
16 14 12 10 9 9 10 11 12 12 13 13 13 12 11 9 8 6 5 4 4 4 3 1 359 357 355 353 351 350 349 349 350 352 353 352 351 350 349 348 348 348 349 350 352 353 354 356 356 355 353 351 349 347 345 345 344 344 343 343 343 343 343 342 342 342 343 344 346 347 348 349 349 349 349 349 348 347 346 345 344 344 345 346 346 346
16 15 13 11 9 8 7 7 8 9 10 11 11 10 9 8 6 5 4 4 3 2 1 359 357 355 354 353 352 350 350 350 352 353 354 353 352 352 353 353 353 354 356 357 358 359 359 359 359 358 356 354 351 349 347 347 347 346 346 347 348 349 349 348 348 347 348 348 349 350 350 350 351 351 351 351 350 350 348 347 347 347 347 348 348 347
16 15 14 12 10 9 7 6 7 8 9 10 9 9 8 6 5 4 3 2 1 0 359 357 356 354 354 354 354 354 353 353 353 354 355 355 355 355 356 359 0 2 3 5 6 6 5 4 3 2 0 358 356 354 352 351 350 350 350 351 353 353 354 353 353 352 352 352 352 353 352 352 353 353 353 353 353 352 351 350 349 349 350 349 349 349
17 17 16 15 13 12 10 9 9 11 11 11 10 9 7 6 4 3 2 1 360 359 357 357 356 356 356 356 357 357 356 355 354 355 357 358 359 360 2 6 9 10 11 11 12 12 11 9 7 6 4 3 3 2 360 358 355 354 354 356 357 358 358 357 357 357 356 356 356 355 355 355 355 355 355 356 356 355 353 352 351 351 352 352 351 351
19 20 19 19 18 17 16 15 15 15 15 14 12 10 8 6 4 2 1 0 359 359 359 359 0 2 3 4 3 0 358 357 357 358 1 3 5 6 8 11 15 17 18 17 17 16 16 15 13 11 9 8 7 7 7 5 3 1 0 1 2 3 2 1 1 1 0 360 359 359 357 357 356 356 357 357 357 357 356 355 353 353 353 353 353 354
24 24 25 25 24 24 23 23 23 22 20 18 15 12 9 7 4 3 2 2 3 4 6 8 10 12 13 12 10 7 4 3 3 5 7 10 12 14 15 17 19 21 21 21 21 21 20 19 18 16 13 12 11 11 11 11 10 9 9 8 8 7 7 6 5 5 4 4 3 1 360 358 357 357 357 357 357 358 359 358 356 356 357 357 357 357
29 30 31 31 31 31 30 29 28 26 24 21 18 14 11 9 8 8 8 10 12 15 18 21 22 23 22 20 17 14 11 10 11 13 15 17 20 21 22 22 23 23 23 23 23 23 22 21 20 18 16 15 14 14 14 14 14 15 15 15 14 12 11 10 9 8 7 7 6 5 3 1 359 359 358 357 358 359 360 360 360 360 0 2 3 3
35 36 36 37 37 36 35 33 31 28 26 23 20 18 16 15 16 17 19 21 23 26 28 31 31 31 30 27 24 22 20 19 20 21 24 25 27 28 28 27 26 25 24 24 24 24 23 22 20 19 17 16 16 16 16 17 18 19 19 20 19 18 15 14 12 11 10 9 8 7 6 4 3 1 0 359 359 0 2 3 3 2 3 5 8 10
40 40 41 41 40 39 37 36 34 32 30 27 25 24 24 25 26 26 27 28 29 30 32 34 36 37 37 35 33 31 30 29 29 30 32 33 34 34 32 30 28 27 25 25 24 24 23 22 20 19 18 18 19 19 19 20 21 22 22 23 23 22 20 18 16 14 13 12 11 10 9 7 6 5 3 3 2 3 4 4 5 5 6 7 9 12
44 44 44 44 43 42 41 39 38 36 35 34 33 32 32 32 32 31 31 31 31 32 33 35 37 39 40 40 40 41 40 39 39 39 39 39 39 37 35 32 30 28 27 26 25 23 22 21 20 19 20 21 22 22 22 23 23 24 24 24 24 24 24 22 19 17 16 14 13 12 11 9 8 7 6 6 5 5 5 6 6 6 7 9 12 14
49 48 48 47 46 45 44 43 42 41 39 38 37 36 36 36 35 34 34 33 34 34 35 36 37 39 40 42 45 49 49 48 47 46 45 43 41 39 37 34 31 29 28 27 25 23 22 20 19 19 21 23 24 25 25 25 26 26 26 25 25 25 25 24 22 21 19 17 16 14 12 11 10 9 8 7 7 7 7 7 7 8 8 10 13 16
51 51 50 49 48 47 46 44 43 42 40 39 38 37 37 37 37 37 36 37 37 38 38 39 40 40 42 46 50 53 54 53 51 49 47 45 43 40 38 35 33 30 29 27 26 24 23 21 20 20 22 24 25 26 26 27 27 27 27 26 26 26 25 24 23 23 22 21 19 17 15 13 12 11 10 8 8 8 9 9 10 10 11 12 14 17
51 51 49 49 47 46 45 44 43 42 41 40 39 39 39 40 40 40 41 42 43 44 45 46 47 48 50 52 53 53 52 51 50 49 47 45 42 40 38 35 33 31 29 27 26 24 23 22 22 22 23 24 25 26 27 28 28 28 28 27 27 26 25 24 24 24 24 23 22 20 18 16 15 13 12 11 10 10 10 11 12 13 13 14 15 18
50 49 48 47 46 46 45 44 44 43 43 42 42 43 44 44 45 46 47 49 50 51 52 53 54 55 55 54 54 52 50 48 46 45 43 42 40 38 37 35 33 31 30 28 26 25 24 23 23 24 24 24 24 25 26 27 27 27 27 27 27 27 26 25 24 23 23 24 24 23 21 20 19 18 16 15 13 12 12 12 13 15 16 17 18 19
51 50 49 48 48 47 47 47 47 47 48 48 49 49 50 51 52 53 54 55 56 56 57 57 57 57 55 54 53 51 49 46 44 41 40 38 37 35 34 33 32 31 29 28 27 26 25 25 25 25 25 25 24 24 24 25 26 26 27 27 26 26 25 24 23 22 23 23 23 23 23 23 23 22 20 19 18 16 15 14 15 16 18 19 20 21
53 52 52 52 52 52 52 52 53 54 55 55 56 57 57 58 58 58 59 58 58 58 58 57 57 56 54 53 51 50 48 45 43 40 38 36 35 33 32 30 30 29 28 27 27 27 27 26 26 26 25 25 24 23 23 24 24 25 25 25 25 25 24 22 21 20 21 22 22 23 23 24 24 24 23 23 22 20 19 17 17 17 19 20 21 22
57 57 57 57 57 58 58 59 59 60 60 61 61 61 61 61 61 60 60 59 59 58 57 57 56 55 53 52 50 49 47 45 42 40 38 36 34 33 31 30 28 28 27 27 26 26 26 26 26 26 25 25 24 23 23 23 23 23 23 24 24 23 22 20 19 18 19 20 22 22 23 24 24 24 25 24 24 23 22 21 20 19 19 20 22 24
62 62 62 62 62 62 62 63 63 63 63 63 62 62 62 61 61 60 59 58 58 57 56 55 54 53 52 51 50 48 47 45 43 41 39 37 36 34 32 31 31 30 29 28 28 27 26 26 25 25 24 24 23 23 23 23 22 22 22 23 23 22 20 19 17 17 17 19 20 22 23 23 24 24 25 25 25 25 25 25 24 23 21 22 22 24